TimeCDT,TemperatureF,Dew PointF,Humidity,Sea Level PressureIn,VisibilityMPH,Wind Direction,Wind SpeedMPH,Gust SpeedMPH,PrecipitationIn,Events,Conditions,WindDirDegrees,DateUTC
12:52 AM,48.9,46.9,93,29.64,7.0,Calm,Calm,-,N/A,,Scattered Clouds,0,2013-04-08 05:52:00
1:33 AM,46.4,44.6,93,29.63,2.5,Calm,Calm,-,N/A,,Clear,0,2013-04-08 06:33:00
1:41 AM,44.6,44.6,100,29.63,5.0,Calm,Calm,-,N/A,,Clear,0,2013-04-08 06:41:00
1:52 AM,43.0,42.1,97,29.64,3.0,Calm,Calm,-,N/A,,Clear,0,2013-04-08 06:52:00
1:58 AM,42.8,42.8,100,29.63,1.8,WSW,3.5,-,N/A,,Clear,250,2013-04-08 06:58:00
2:07 AM,42.8,42.8,100,29.64,3.0,West,3.5,-,N/A,,Clear,260,2013-04-08 07:07:00
2:50 AM,46.4,44.6,93,29.64,2.5,Calm,Calm,-,N/A,,Clear,0,2013-04-08 07:50:00
2:52 AM,46.0,45.0,96,29.64,2.5,Calm,Calm,-,N/A,,Clear,0,2013-04-08 07:52:00
2:59 AM,42.8,42.8,100,29.64,0.8,Calm,Calm,-,N/A,,Clear,0,2013-04-08 07:59:00
3:08 AM,41.0,39.2,93,29.63,0.2,Calm,Calm,-,N/A,Fog,Fog,0,2013-04-08 08:08:00
3:25 AM,39.2,39.2,100,29.64,0.2,Calm,Calm,-,N/A,Fog,Fog,0,2013-04-08 08:25:00
3:52 AM,37.9,37.9,100,29.64,0.2,SSW,3.5,-,N/A,Fog,Fog,200,2013-04-08 08:52:00
4:19 AM,37.4,37.4,100,29.64,0.2,South,3.5,-,N/A,Fog,Fog,170,2013-04-08 09:19:00
4:52 AM,39.0,37.9,96,29.64,0.2,NE,3.5,-,N/A,Fog,Fog,40,2013-04-08 09:52:00
5:52 AM,36.0,36.0,100,29.64,0.2,Calm,Calm,-,N/A,Fog,Fog,0,2013-04-08 10:52:00
6:19 AM,35.6,35.6,100,29.64,0.5,South,4.6,-,N/A,Fog,Fog,190,2013-04-08 11:19:00
6:30 AM,35.6,33.8,93,29.64,0.5,Calm,Calm,-,N/A,Fog,Fog,0,2013-04-08 11:30:00
6:52 AM,35.1,34.0,96,29.66,0.5,Calm,Calm,-,N/A,Fog,Fog,0,2013-04-08 11:52:00
7:09 AM,33.8,33.8,100,29.66,0.2,SSW,3.5,-,N/A,Fog,Fog,200,2013-04-08 12:09:00
7:34 AM,37.4,35.6,93,29.66,0.2,Calm,Calm,-,N/A,Fog,Fog,0,2013-04-08 12:34:00
7:50 AM,37.4,37.4,100,29.67,0.2,ESE,3.5,-,N/A,Fog,Fog,110,2013-04-08 12:50:00
7:52 AM,37.9,37.9,100,29.68,0.2,East,3.5,-,N/A,Fog,Fog,100,2013-04-08 12:52:00
8:08 AM,41.0,39.2,93,29.66,0.5,East,3.5,-,N/A,Fog,Fog,80,2013-04-08 13:08:00
8:15 AM,39.2,39.2,100,29.66,2.0,ENE,4.6,-,N/A,,Mostly Cloudy,70,2013-04-08 13:15:00
8:22 AM,41.0,39.2,93,29.66,3.0,ENE,4.6,-,N/A,,Scattered Clouds,70,2013-04-08 13:22:00
8:52 AM,45.0,44.1,97,29.67,5.0,East,5.8,-,N/A,,Clear,100,2013-04-08 13:52:00
9:24 AM,46.4,46.4,100,29.67,3.0,ESE,5.8,-,N/A,,Partly Cloudy,120,2013-04-08 14:24:00
9:52 AM,52.0,48.9,89,29.69,10.0,East,3.5,-,N/A,,Mostly Cloudy,90,2013-04-08 14:52:00
10:52 AM,57.0,50.0,77,29.69,10.0,Calm,Calm,-,N/A,,Mostly Cloudy,0,2013-04-08 15:52:00
11:14 AM,59.0,51.8,77,29.69,10.0,Calm,Calm,-,N/A,,Scattered Clouds,0,2013-04-08 16:14:00
11:31 AM,57.2,51.8,82,29.70,10.0,Variable,3.5,-,N/A,,Mostly Cloudy,0,2013-04-08 16:31:00
11:52 AM,59.0,51.1,75,29.70,10.0,SW,8.1,-,N/A,,Overcast,220,2013-04-08 16:52:00
12:13 PM,60.8,51.8,72,29.70,10.0,Variable,4.6,-,N/A,,Scattered Clouds,0,2013-04-08 17:13:00
12:52 PM,64.9,52.0,63,29.69,10.0,SE,6.9,-,N/A,,Clear,130,2013-04-08 17:52:00
1:52 PM,69.1,51.1,53,29.68,10.0,Variable,6.9,-,N/A,,Clear,0,2013-04-08 18:52:00
2:52 PM,71.1,48.9,45,29.67,10.0,SSE,4.6,-,N/A,,Clear,160,2013-04-08 19:52:00
3:52 PM,73.0,48.0,41,29.67,10.0,SE,8.1,-,N/A,,Clear,130,2013-04-08 20:52:00
4:52 PM,73.0,48.0,41,29.67,10.0,South,6.9,-,N/A,,Clear,170,2013-04-08 21:52:00
5:52 PM,73.0,48.0,41,29.68,10.0,ESE,3.5,-,N/A,,Clear,110,2013-04-08 22:52:00
6:52 PM,71.1,50.0,47,29.70,10.0,SE,6.9,-,N/A,,Clear,130,2013-04-08 23:52:00
7:52 PM,63.0,51.1,65,29.74,10.0,NE,17.3,24.2,N/A,,Scattered Clouds,50,2013-04-09 00:52:00
8:52 PM,57.0,48.9,74,29.77,10.0,NE,18.4,27.6,N/A,,Mostly Cloudy,50,2013-04-09 01:52:00
9:52 PM,52.0,46.9,83,29.81,8.0,NE,18.4,27.6,N/A,,Partly Cloudy,50,2013-04-09 02:52:00
10:27 PM,51.8,46.4,82,29.81,7.0,NE,18.4,26.5,N/A,,Mostly Cloudy,50,2013-04-09 03:27:00
10:52 PM,50.0,45.0,83,29.79,8.0,ENE,24.2,35.7,N/A,,Overcast,60,2013-04-09 03:52:00
11:52 PM,48.0,44.1,86,29.78,6.0,ENE,21.9,32.2,N/A,,Overcast,60,2013-04-09 04:52:00